Погода в Стране

Австралия     42°09′04″S   145°19′35″E
темп.,
°C
ветер,
м/с
пор.,
м/с
влажн.,
%
обл.,
%
осадки,
мм/ч
давл.,
гПа
погр.,
м
18 мая, вт
вт1801:00+11сз5678100 0.1 1024702
04:00+12зсз5677100 0.9 1023623
07:00+12зсз6879100 0.3 1023637
10:00+12ссз6883100 0.8 1023684
13:00+13зсз8107980 0.7 1022911
16:00+13сз71080100 0.9 1022787
19:00+13ссз71081100 0.4 1022904
22:00+13ссз91281100 0.9 10211091
19 мая, ср
ср1901:00+13сз101481100 0.8 10211240
04:00+14сз101477100 1.0 10201489
07:00+14ссз101477100 0.1 10201112
10:00+14ссз111484100 0.3 10201055
13:00+14ссз12158587 0.4 10191064
16:00+14ссз111584100 0.7 1018979
19:00+14ссз121582100 0.2 10191017
22:00+14с111681100 2.2 10171144
20 мая, чт
чт2001:00+14ссз132076100 1.4 10151277
04:00+14зсз141991100 7.1 10151369
07:00+12зюз10126745 1.9 10181022
10:00+11зюз81059100 1.9 10221559
13:00+11зюз101265100 0.1 10231677
16:00+11зюз89535 0.2 10241730
19:00+11зюз795866 0.0 10271551
22:00+11зюз675980 0.1 10281270
21 мая, пт
пт2101:00+11зсз4560100 0.0 10291123
04:00+10ссз566775 0.1 1029795
07:00+9с57735 0.0 1030495
10:00+10с567031 0.0 1030518
13:00+12ссз686632 0.0 1029907
16:00+12сз78695 0.0 1028748
19:00+12ссз68715 0.0 1028537
22:00+10ссв587011 0.0 1028281
22 мая, сб
сб2201:00+10ссв596536 0.0 1027236
04:00+11ссв696787 0.0 1026244
07:00+11ссв6117196 0.0 1026252
10:00+14ссв7116911 0.0 1026372
13:00+16с61068100 0.0 1024362
16:00+16с597188 0.0 1024213
19:00+14ссв61174100 0.0 1025275
22:00+14ссв51071100 0.0 1025277